Date,TemperatureHighF,TemperatureAvgF,TemperatureLowF,DewpointHighF,DewpointAvgF,DewpointLowF,HumidityHigh,HumidityAvg,HumidityLow,PressureMaxIn,PressureMinIn,WindSpeedMaxMPH,WindSpeedAvgMPH,GustSpeedMaxMPH,PrecipitationSumIn
2013-1-1,50,47,42,49,44,36,97,89,66,30.12,29.89,4,0,4,1.19
2013-1-2,57,49,42,50,45,38,97,86,69,30.10,29.86,10,1,10,0.18
2013-1-3,49,42,32,40,37,30,93,82,64,30.26,30.05,8,0,8,0.00
2013-1-4,55,39,28,33,27,21,95,69,28,30.34,30.22,10,0,12,0.00
2013-1-5,53,38,24,41,28,22,93,72,34,30.37,30.22,10,0,10,0.01
2013-1-6,54,45,36,42,38,33,93,76,57,30.25,30.07,18,1,18,0.00
2013-1-7,60,41,29,36,32,27,96,73,36,30.36,30.19,10,0,12,0.00
2013-1-8,53,42,29,42,36,27,93,80,60,30.40,30.29,8,0,8,0.00
2013-1-9,67,56,49,53,48,42,89,74,58,30.40,30.30,6,0,6,0.00
2013-1-10,73,60,49,59,54,47,94,81,58,30.38,30.21,14,0,14,0.03
2013-1-11,71,64,60,65,62,58,97,93,79,30.22,30.05,14,1,14,0.10
2013-1-12,75,62,54,65,58,53,98,88,60,30.12,30.01,12,0,12,0.01
2013-1-13,74,63,52,64,59,51,97,88,69,30.08,29.96,14,1,14,0.00
2013-1-14,74,66,58,66,62,56,96,87,70,30.05,29.97,14,1,14,0.07
2013-1-15,69,62,57,63,60,56,97,91,79,30.06,29.91,14,1,18,0.09
2013-1-16,64,59,53,63,58,52,97,96,92,29.95,29.85,10,0,10,0.66
2013-1-17,58,50,38,57,49,37,98,94,84,30.17,29.68,24,1,24,1.48
2013-1-18,58,40,30,39,33,27,97,79,32,30.46,30.17,10,0,10,0.00
2013-1-19,59,39,25,36,30,24,96,75,35,30.44,30.18,8,0,10,0.00
2013-1-20,66,45,28,40,34,27,97,70,36,30.18,30.03,14,1,16,0.00
2013-1-21,61,44,29,37,30,19,96,63,34,30.10,29.99,20,1,20,0.00
2013-1-22,49,38,30,20,16,13,67,42,26,30.26,30.09,16,1,16,0.00
2013-1-23,54,38,24,35,25,17,85,62,36,30.34,30.13,18,1,18,0.00
2013-1-24,59,48,32,41,30,16,78,55,22,30.37,30.06,22,1,24,0.00
2013-1-25,37,33,30,27,18,11,72,54,42,30.42,30.12,6,0,8,0.00
2013-1-26,63,44,33,37,30,18,92,64,19,30.24,30.09,12,0,12,0.00
2013-1-27,55,41,29,34,31,26,92,69,43,30.46,30.24,10,0,10,0.00
2013-1-28,55,46,39,44,37,32,93,72,62,30.40,30.24,6,0,6,0.00
2013-1-29,74,54,37,62,49,35,95,84,58,30.24,29.94,16,0,16,0.00
2013-1-30,72,63,45,65,58,40,93,85,75,29.94,29.44,28,3,28,1.36
2013-1-31,50,42,34,41,28,23,84,59,36,30.11,29.69,28,3,30,0.01
2013-2-1,47,39,27,30,18,6,67,44,21,30.33,30.05,18,2,18,0.00
2013-2-2,55,36,20,39,21,10,94,60,21,30.33,30.07,24,0,24,0.13
2013-2-3,58,44,32,39,32,27,95,70,32,30.08,29.91,34,2,34,0.01
2013-2-4,51,39,29,33,29,26,91,70,40,30.11,29.98,8,0,8,0.00
2013-2-5,62,45,28,47,38,27,94,78,51,30.00,29.92,14,0,14,0.00
2013-2-6,72,49,32,47,36,30,97,68,23,30.14,29.98,10,0,10,0.00
2013-2-7,47,43,36,44,40,34,95,88,62,30.12,29.89,6,0,6,0.81
2013-2-8,59,49,42,50,43,33,96,81,57,30.10,29.88,16,1,18,0.01
2013-2-9,66,44,29,37,31,26,95,66,23,30.26,30.08,12,0,14,0.00
2013-2-10,64,48,33,50,40,31,96,77,50,30.32,30.03,16,1,20,1.03
2013-2-11,60,53,50,60,52,48,98,96,92,30.08,29.97,8,0,8,0.38
2013-2-12,58,50,45,50,46,40,95,86,53,30.05,29.82,6,0,8,0.25
2013-2-13,56,47,40,49,43,35,97,88,72,29.89,29.69,18,1,20,0.04
2013-2-14,58,42,32,37,34,31,95,77,41,30.05,29.88,12,0,12,0.00
2013-2-15,66,46,29,42,34,28,97,70,29,30.07,29.92,14,1,14,0.00
2013-2-16,47,41,31,36,24,10,82,54,29,30.08,29.86,34,2,34,0.00
2013-2-17,48,34,25,21,14,8,77,46,20,30.26,30.08,22,1,22,0.00
2013-2-18,60,40,22,29,24,18,92,59,25,30.36,30.13,18,1,20,0.00
2013-2-19,59,46,37,47,35,20,95,69,37,30.14,29.94,18,1,18,0.35
2013-2-20,57,42,26,24,19,11,87,46,17,30.14,30.03,16,1,18,0.00
2013-2-21,68,48,28,34,25,19,84,46,18,30.16,29.95,10,0,10,0.00
2013-2-22,54,42,40,42,40,32,96,92,44,30.15,30.02,8,0,8,1.63
2013-2-23,47,44,40,46,43,39,96,95,93,30.04,29.81,8,0,8,0.75
2013-2-24,69,49,34,47,37,32,98,71,27,29.98,29.85,10,1,10,0.00
2013-2-25,50,44,37,37,34,29,93,69,48,30.03,29.89,16,0,16,0.02
2013-2-26,46,40,36,44,38,34,96,93,76,29.89,29.55,12,0,12,1.69
2013-2-27,62,50,42,38,35,32,77,58,36,29.85,29.71,20,2,28,0.00
2013-2-28,50,43,35,36,31,26,81,62,49,29.93,29.76,18,2,20,0.00
2013-3-1,49,39,29,32,28,25,89,66,49,29.95,29.88,20,2,20,0.00
2013-3-2,46,39,33,31,29,24,82,67,45,29.95,29.86,32,2,32,0.00
2013-3-3,46,36,27,25,20,18,76,54,34,30.03,29.92,20,2,22,0.00
2013-3-4,64,43,24,35,24,16,85,53,23,30.15,29.99,10,1,10,0.00
2013-3-5,70,52,36,56,42,26,90,70,53,30.04,29.60,32,3,34,0.08
2013-3-6,43,38,34,29,26,20,75,60,51,30.12,29.80,36,4,36,0.00
2013-3-7,64,44,26,33,29,24,94,62,28,30.22,30.09,12,1,18,0.00
2013-3-8,68,45,27,33,28,23,93,60,20,30.28,30.14,10,0,10,0.00
2013-3-9,68,46,29,37,32,27,92,64,25,30.31,30.16,10,0,10,0.00
2013-3-10,73,56,42,48,40,36,85,59,28,30.21,30.04,14,1,16,0.00
2013-3-11,67,58,52,57,52,48,96,81,65,30.07,29.74,18,2,18,0.74
2013-3-12,64,53,42,57,41,33,96,68,34,30.02,29.71,18,2,22,0.08
2013-3-13,58,44,30,36,28,20,96,58,26,30.18,30.02,20,3,24,0.00
2013-3-14,57,43,28,24,20,16,69,41,22,30.31,30.15,20,1,20,0.00
2013-3-15,76,54,30,43,34,22,89,53,28,30.18,29.92,22,1,22,0.00
2013-3-16,80,66,53,44,41,36,69,43,21,29.94,29.78,28,2,28,0.00
2013-3-17,74,62,48,55,48,41,88,62,44,29.95,29.83,18,1,18,0.00
2013-3-18,58,51,45,55,48,43,96,88,75,29.99,29.79,18,0,20,0.68
2013-3-19,68,54,46,46,36,21,97,60,19,30.01,29.83,18,2,18,0.00
2013-3-20,61,48,35,35,26,15,89,49,18,30.08,29.83,16,1,18,0.00
2013-3-21,52,41,30,30,18,8,86,44,19,29.93,29.83,20,2,22,0.00
2013-3-22,51,42,31,35,25,19,73,53,34,30.04,29.92,8,0,10,0.00
2013-3-23,53,47,42,49,44,35,96,88,67,29.99,29.80,8,0,8,1.01
2013-3-24,48,47,44,47,45,38,96,93,72,29.83,29.49,16,0,16,1.46
2013-3-25,47,41,36,38,26,22,72,56,43,30.00,29.60,30,4,30,0.00
2013-3-26,46,38,32,28,26,23,77,60,46,30.22,29.98,22,3,26,0.00
2013-3-27,58,43,29,28,25,21,84,53,24,30.30,30.16,16,1,16,0.00
2013-3-28,65,46,28,34,27,19,92,55,21,30.29,30.14,22,1,22,0.00
2013-3-29,70,50,30,38,32,24,94,56,23,30.31,30.13,12,0,12,0.00
2013-3-30,76,60,48,56,43,35,94,55,30,30.16,29.95,12,1,14,0.17
2013-3-31,71,62,56,62,56,54,95,83,58,29.97,29.79,16,1,16,0.24
2013-4-1,76,63,51,57,48,33,97,65,22,29.95,29.78,30,2,30,0.11
2013-4-2,72,56,41,45,37,28,94,55,27,30.11,29.95,18,1,18,0.00
2013-4-3,64,53,42,45,35,28,87,53,31,30.16,30.03,12,0,12,0.06
2013-4-4,48,43,40,44,40,38,94,89,77,30.14,29.94,14,0,14,0.41
2013-4-5,69,50,37,48,42,36,96,78,44,30.00,29.89,10,0,10,0.01
2013-4-6,77,55,36,47,39,33,97,63,22,30.16,30.00,14,1,14,0.00
2013-4-7,79,58,39,52,46,37,95,69,34,30.18,30.02,12,1,14,0.00
2013-4-8,82,64,50,58,53,48,94,70,38,30.10,29.99,16,1,16,0.00
2013-4-9,87,67,50,62,56,48,96,72,35,30.13,30.02,12,0,12,0.00
2013-4-10,89,69,52,62,57,50,97,70,37,30.07,29.87,20,1,20,0.00
2013-4-11,84,69,56,69,62,54,96,81,54,29.90,29.63,22,1,22,0.10
2013-4-12,74,66,58,68,52,39,96,65,33,29.84,29.59,18,2,20,0.69
2013-4-13,81,62,42,48,41,32,94,54,18,29.96,29.83,14,1,14,0.00
2013-4-14,64,55,44,59,50,42,95,85,63,30.01,29.83,4,0,6,0.12
2013-4-15,80,66,56,62,58,54,95,79,50,30.09,29.88,10,0,10,0.00
2013-4-16,86,70,57,64,60,55,95,75,45,30.19,30.09,8,0,8,0.00
2013-4-17,88,72,61,65,62,59,94,74,43,30.16,30.02,12,0,12,0.00
2013-4-18,84,70,58,66,62,56,96,77,46,30.05,29.87,14,1,14,0.00
2013-4-19,72,61,47,68,58,44,94,89,79,29.95,29.74,16,1,16,0.65
2013-4-20,68,52,37,44,37,30,94,64,27,30.18,29.94,10,1,12,0.00
2013-4-21,74,55,37,44,41,35,96,65,29,30.31,30.18,14,0,14,0.00
2013-4-22,73,58,48,48,44,40,87,61,37,30.29,30.10,16,1,18,0.00
2013-4-23,79,58,40,52,46,37,94,69,34,30.19,30.02,10,0,10,0.00
2013-4-24,79,61,47,62,54,45,96,80,46,30.09,29.99,16,1,16,0.05
2013-4-25,77,62,51,62,46,28,95,63,20,30.23,30.03,16,1,16,0.01
2013-4-26,81,59,38,53,43,36,94,61,25,30.34,30.21,10,0,10,0.00
2013-4-27,70,61,54,57,54,51,92,78,58,30.29,30.13,10,0,10,0.02
2013-4-28,61,57,55,60,55,54,97,95,86,30.15,29.97,4,0,4,1.26
2013-4-29,72,61,56,64,58,54,97,91,70,30.00,29.87,6,0,6,0.01
2013-4-30,81,65,54,65,58,53,97,81,41,30.05,29.91,8,0,8,0.00
2013-5-1,72,64,58,60,57,56,96,80,61,30.15,30.05,16,0,16,0.00
2013-5-2,70,62,60,61,58,56,94,88,72,30.15,30.07,10,0,10,0.01
2013-5-3,64,60,59,60,57,54,94,90,83,30.09,29.94,8,0,8,0.05
2013-5-4,60,54,51,56,53,49,97,94,87,29.95,29.78,10,0,10,1.88
2013-5-5,66,58,53,62,56,51,97,94,80,29.80,29.70,10,0,10,1.77
2013-5-6,61,54,46,52,49,45,96,86,63,29.87,29.75,14,0,14,0.03
2013-5-7,72,59,49,55,52,48,97,80,52,29.91,29.80,14,0,14,0.05
2013-5-8,80,64,51,59,54,49,96,74,42,29.99,29.89,14,1,16,0.00
2013-5-9,86,68,52,62,57,50,97,73,38,30.05,29.95,10,0,10,0.00
2013-5-10,82,68,55,64,60,53,97,76,48,30.02,29.88,16,1,18,0.00
2013-5-11,78,68,59,66,62,57,97,83,60,29.93,29.79,12,0,12,0.62
2013-5-12,73,63,51,63,49,36,97,67,29,30.02,29.83,14,1,22,0.00
2013-5-13,72,56,41,44,38,31,91,56,25,30.16,30.01,16,1,16,0.00
2013-5-14,81,61,41,56,46,38,95,64,34,30.22,30.05,12,0,12,0.00
2013-5-15,90,71,54,60,57,52,96,66,30,30.09,29.93,14,1,14,0.00
2013-5-16,86,70,58,66,60,56,94,74,45,30.02,29.91,10,0,10,0.00
2013-5-17,85,69,56,67,60,54,95,74,44,30.04,29.95,12,0,12,0.00
2013-5-18,78,70,65,68,65,63,96,85,62,30.04,29.97,10,0,10,0.11
2013-5-19,73,69,66,70,67,64,97,93,86,30.04,29.94,12,0,12,0.22
2013-5-20,87,72,64,72,67,62,97,85,59,30.05,29.93,4,0,4,0.00
2013-5-21,93,75,63,76,68,62,97,83,47,29.98,29.84,8,0,8,0.18
2013-5-22,89,73,62,73,67,61,97,84,57,29.94,29.78,18,0,18,0.91
2013-5-23,86,74,66,69,64,57,97,74,46,29.89,29.81,20,1,22,0.21
2013-5-24,79,68,57,59,52,46,86,59,33,30.13,29.88,18,2,18,0.00
2013-5-25,81,63,46,55,49,44,94,65,31,30.26,30.11,10,0,10,0.00
2013-5-26,84,66,51,60,54,49,94,69,35,30.22,30.08,8,0,8,0.00
2013-5-27,91,71,54,64,59,52,96,71,36,30.18,30.04,8,0,10,0.00
2013-5-28,90,74,62,66,62,59,93,69,39,30.14,30.04,8,0,10,0.00
2013-5-29,89,73,59,68,63,57,95,75,47,30.17,30.06,8,0,8,0.00
2013-5-30,89,74,63,69,66,61,94,79,48,30.19,30.05,6,0,6,0.00
2013-5-31,90,76,65,70,67,63,94,75,43,30.15,30.00,8,0,10,0.00
2013-6-1,90,76,65,70,67,63,95,74,47,30.05,29.91,10,0,10,0.00
2013-6-2,85,74,67,77,69,65,96,83,66,29.95,29.81,16,0,16,0.56
2013-6-3,87,74,66,73,69,65,97,84,54,29.88,29.77,8,0,8,0.00
2013-6-4,89,76,65,73,68,64,96,78,51,29.94,29.85,6,0,6,0.00
2013-6-5,85,74,69,76,70,66,96,89,67,29.98,29.84,6,0,6,1.19
2013-6-6,79,72,68,72,69,67,98,91,78,29.88,29.69,12,0,12,3.73
2013-6-7,88,73,68,73,69,67,98,89,56,29.78,29.60,10,0,12,0.69
2013-6-8,84,74,65,71,68,64,98,84,58,30.01,29.77,8,0,8,0.00
2013-6-9,86,74,68,78,70,67,97,88,62,30.04,29.93,8,0,12,0.66
2013-6-10,76,71,67,73,69,65,97,94,87,29.98,29.87,14,0,20,0.63
2013-6-11,90,78,70,75,72,69,97,82,59,29.97,29.86,14,1,14,0.00
2013-6-12,96,81,68,78,73,67,98,79,51,29.97,29.87,8,0,8,0.00
2013-6-13,94,80,69,75,72,67,96,78,47,29.88,29.66,22,1,26,0.63
2013-6-14,88,74,66,70,66,59,98,77,41,29.94,29.74,6,0,6,0.00
2013-6-15,90,73,61,69,63,59,96,76,36,30.06,29.93,8,0,8,0.00
2013-6-16,89,75,61,72,67,59,97,78,51,30.10,29.95,10,0,10,0.00
2013-6-17,88,74,68,76,70,67,97,88,63,30.02,29.85,14,0,14,1.37
2013-6-18,84,73,68,76,71,67,97,92,71,29.90,29.75,14,1,16,0.66
2013-6-19,81,74,70,74,71,68,97,90,76,30.01,29.81,4,0,4,0.01
2013-6-20,88,74,64,72,67,63,98,82,55,30.12,30.01,6,0,6,0.00
2013-6-21,88,74,62,71,66,61,97,79,52,30.17,30.08,6,0,6,0.00
2013-6-22,88,73,61,71,66,59,97,80,48,30.15,30.02,6,0,6,0.00
2013-6-23,88,76,65,75,69,63,97,83,58,30.13,30.03,6,0,6,0.00
2013-6-24,89,77,68,78,71,66,97,83,57,30.15,30.02,8,0,12,0.05
2013-6-25,90,76,68,76,71,67,97,86,56,30.09,29.95,20,0,20,0.84
2013-6-26,90,78,69,78,73,68,98,85,58,30.01,29.86,12,0,14,0.00
2013-6-27,90,81,74,77,74,72,95,80,60,29.91,29.71,20,1,20,0.00
2013-6-28,96,80,72,75,72,69,95,78,45,29.77,29.56,32,1,32,0.12
2013-6-29,90,77,71,74,71,68,95,82,51,29.65,29.57,18,0,18,0.01
2013-6-30,86,76,69,74,71,67,96,85,60,29.73,29.62,8,0,8,0.08
2013-7-1,84,75,70,74,70,68,97,86,68,29.86,29.72,8,0,10,0.00
2013-7-2,90,78,71,73,71,68,96,80,50,30.03,29.85,10,0,12,0.00
2013-7-3,81,72,68,74,70,67,97,92,78,30.12,30.00,10,0,10,0.76
2013-7-4,82,72,68,76,70,68,98,95,78,30.13,30.04,22,0,22,1.82
2013-7-5,87,75,70,76,72,68,98,90,67,30.14,30.06,6,0,6,0.24
2013-7-6,89,76,70,78,72,68,98,89,59,30.11,30.00,8,0,12,1.09
2013-7-7,87,76,71,76,73,70,98,91,65,30.11,30.02,8,0,10,0.06
2013-7-8,90,77,69,77,72,68,98,86,61,30.13,30.02,14,0,18,0.03
2013-7-9,88,77,72,81,74,71,97,90,71,30.11,29.98,10,0,16,1.39
2013-7-10,91,77,71,80,74,70,98,90,66,30.05,29.88,10,0,10,2.30
2013-7-11,80,75,70,76,73,69,98,93,83,29.91,29.80,6,0,6,0.01
2013-7-12,91,75,68,77,72,67,97,88,60,29.90,29.78,6,0,8,0.53
2013-7-13,79,72,68,74,70,67,97,94,82,30.00,29.88,4,0,4,0.41
2013-7-14,83,74,70,78,73,69,98,95,80,30.16,29.99,6,0,6,0.35
2013-7-15,85,75,70,77,72,69,98,91,73,30.22,30.14,6,0,6,0.05
2013-7-16,93,77,68,76,72,67,98,85,52,30.25,30.15,4,0,4,0.01
2013-7-17,96,77,68,80,72,66,98,87,55,30.20,30.04,12,0,12,2.17
2013-7-18,92,77,69,78,72,68,98,86,55,30.15,29.98,6,0,6,0.02
2013-7-19,93,79,71,79,74,70,98,85,53,30.05,29.91,4,0,4,0.00
2013-7-20,89,78,73,78,74,72,95,88,65,29.97,29.86,12,0,12,0.01
2013-7-21,90,78,70,79,73,69,97,86,60,29.97,29.84,14,0,14,0.07
2013-7-22,90,77,71,77,73,70,97,87,63,29.95,29.81,12,1,12,0.05
2013-7-23,87,77,71,77,72,69,95,84,66,29.88,29.75,16,1,16,0.12
2013-7-24,90,78,72,78,72,69,93,83,62,29.79,29.71,14,0,14,0.00
2013-7-25,93,77,68,77,71,67,97,83,50,29.93,29.75,6,0,8,0.00
2013-7-26,84,74,68,79,72,67,96,91,72,30.00,29.90,10,0,10,0.50
2013-7-27,84,75,69,75,71,68,98,89,69,29.94,29.83,10,0,10,0.00
2013-7-28,91,76,66,76,71,65,98,85,54,29.96,29.85,8,0,10,0.02
2013-7-29,90,76,68,74,69,63,97,82,44,30.08,29.94,8,0,8,0.00
2013-7-30,93,74,61,73,67,60,96,80,46,30.13,30.03,4,0,4,0.00
2013-7-31,80,74,71,74,71,69,97,91,79,30.08,29.90,6,0,8,0.04
2013-8-1,89,78,72,77,73,71,97,86,62,29.94,29.80,12,0,12,0.22
2013-8-2,94,78,69,76,72,68,97,84,47,29.95,29.84,6,0,6,0.00
2013-8-3,88,78,68,74,71,66,97,82,58,29.98,29.90,10,0,12,0.00
2013-8-4,92,80,73,76,73,71,96,81,53,29.94,29.85,8,0,8,0.00
2013-8-5,93,78,70,78,73,69,96,85,59,29.98,29.88,4,0,4,0.00
2013-8-6,90,80,74,78,74,71,94,85,63,29.95,29.88,10,0,10,0.00
2013-8-7,81,75,72,76,73,70,96,92,80,29.98,29.92,10,0,10,0.21
2013-8-8,88,78,72,78,74,71,97,89,67,29.99,29.93,6,0,6,0.00
2013-8-9,94,81,71,76,74,70,98,81,51,30.02,29.93,10,0,10,0.00
2013-8-10,92,78,72,79,74,71,97,89,61,30.05,29.99,16,0,16,0.84
2013-8-11,94,79,70,78,73,69,98,84,52,30.09,29.98,10,0,12,0.02
2013-8-12,90,78,70,81,74,69,98,89,66,30.03,29.90,10,0,10,0.11
2013-8-13,90,78,70,76,73,69,97,86,60,29.94,29.80,6,0,16,0.01
2013-8-14,84,75,71,74,71,67,97,86,67,29.95,29.80,4,0,4,0.00
2013-8-15,79,70,68,68,64,61,93,82,61,30.03,29.93,8,0,8,0.00
2013-8-16,68,65,62,66,62,60,97,92,80,30.08,29.98,6,0,6,1.21
2013-8-17,67,64,61,66,63,60,97,96,92,30.10,30.03,4,0,4,0.55
2013-8-18,77,70,66,73,69,66,98,95,85,30.14,30.05,2,0,2,1.09
2013-8-19,78,72,69,74,71,69,98,96,85,30.10,30.00,4,0,4,0.37
2013-8-20,85,74,69,76,72,68,98,92,74,30.11,30.02,4,0,4,0.00
2013-8-21,87,74,68,78,71,67,98,92,72,30.17,30.04,6,0,6,0.12
2013-8-22,93,77,67,77,70,66,98,84,55,30.10,29.97,8,0,8,0.00
2013-8-23,93,78,67,76,72,66,98,83,52,30.01,29.89,8,0,8,0.00
2013-8-24,87,74,68,73,69,66,97,83,58,30.18,29.97,8,0,8,0.01
2013-8-25,87,72,62,68,64,61,96,80,46,30.30,30.18,6,0,6,0.00
2013-8-26,89,70,57,68,62,55,98,80,47,30.25,30.08,4,0,4,0.00
2013-8-27,91,73,61,72,66,59,97,82,49,30.11,29.96,6,0,6,0.00
2013-8-28,94,76,64,77,70,62,98,82,50,29.99,29.89,8,0,8,0.00
2013-8-29,94,80,69,79,74,67,97,83,56,29.92,29.81,10,0,10,0.00
2013-8-30,90,78,72,78,74,71,97,88,66,29.96,29.85,4,0,4,0.00
2013-8-31,95,78,70,77,73,68,98,87,51,29.91,29.80,8,0,8,0.44
2013-9-1,88,74,70,78,72,68,98,94,63,29.87,29.78,16,0,16,0.76
2013-9-2,86,75,70,75,72,69,98,89,67,29.88,29.78,12,0,14,0.00
2013-9-3,93,78,70,77,72,69,97,84,54,29.90,29.79,12,0,12,0.00
2013-9-4,93,76,65,76,70,64,98,84,48,30.02,29.88,6,0,6,0.00
2013-9-5,94,76,67,78,71,66,97,86,50,30.06,29.97,6,0,6,0.00
2013-9-6,91,75,66,71,68,64,97,81,48,30.09,29.98,6,0,6,0.00
2013-9-7,89,73,63,72,67,61,97,82,52,30.06,29.93,6,0,6,0.00
2013-9-8,96,76,63,75,69,62,98,81,46,29.96,29.85,8,0,8,0.00
2013-9-9,96,78,68,74,70,67,97,80,42,30.05,29.91,4,0,6,0.00
2013-9-10,94,76,66,75,70,65,97,83,49,30.16,30.04,6,0,6,0.00
2013-9-11,95,76,65,72,68,64,97,79,40,30.15,30.02,6,0,6,0.00
2013-9-12,93,75,65,74,69,64,97,84,49,30.03,29.82,14,0,14,0.00
2013-9-13,90,76,64,71,66,60,95,75,39,29.84,29.72,10,0,10,0.00
2013-9-14,87,68,55,66,59,53,96,76,43,30.02,29.82,8,0,8,0.00
2013-9-15,89,72,60,73,66,58,96,84,54,30.11,30.01,8,0,8,0.00
2013-9-16,90,75,65,73,68,64,97,82,50,30.07,29.97,6,0,6,0.00
2013-9-17,80,71,66,66,63,61,95,77,54,30.19,30.03,8,0,8,0.00
2013-9-18,84,70,63,64,61,59,92,74,46,30.19,30.07,4,0,6,0.00
2013-9-19,88,70,57,68,62,56,97,79,46,30.13,30.01,6,0,6,0.00
2013-9-20,92,73,60,70,64,58,97,78,43,30.03,29.85,8,0,8,0.00
2013-9-21,75,69,65,71,67,63,96,93,85,29.87,29.63,8,0,10,1.69
2013-9-22,85,69,59,68,63,58,98,85,51,29.83,29.68,6,0,6,0.00
2013-9-23,85,68,59,66,61,57,97,81,46,29.97,29.82,8,0,8,0.00
2013-9-24,73,67,62,66,64,60,96,90,75,29.99,29.84,4,0,4,0.07
2013-9-25,66,64,62,65,63,61,97,96,95,29.85,29.77,4,0,4,1.14
2013-9-26,80,67,61,68,63,60,98,89,62,29.96,29.81,4,0,4,0.00
2013-9-27,84,65,52,64,58,51,98,82,48,30.09,29.96,8,0,8,0.00
2013-9-28,80,63,52,62,56,51,97,82,52,30.18,30.06,8,0,8,0.00
2013-9-29,76,62,52,62,57,51,97,85,55,30.11,29.97,6,0,6,0.00
2013-9-30,82,63,52,63,57,51,97,82,45,30.04,29.94,4,0,4,0.00
2013-10-1,86,65,52,66,58,51,98,82,44,30.11,29.99,4,0,4,0.00
2013-10-2,86,67,54,70,61,53,98,84,52,30.11,30.00,6,0,6,0.00
2013-10-3,87,69,57,68,62,56,98,82,44,30.09,30.00,8,0,8,0.00
2013-10-4,88,68,57,70,63,55,98,84,46,30.10,30.01,4,0,4,0.00
2013-10-5,91,71,58,70,63,57,98,81,42,30.08,29.95,6,0,6,0.00
2013-10-6,88,70,59,70,64,57,98,84,48,29.98,29.80,12,0,12,0.87
2013-10-7,84,70,61,70,66,59,97,88,57,29.89,29.75,8,0,8,0.06
2013-10-8,74,64,57,61,56,52,94,77,60,30.10,29.88,8,0,10,0.00
2013-10-9,80,63,50,58,53,47,93,73,38,30.15,30.04,8,0,8,0.00
2013-10-10,83,62,49,62,55,48,97,79,42,30.08,29.93,10,0,10,0.00
2013-10-11,84,64,51,65,57,50,97,80,43,29.99,29.88,10,0,10,0.00
2013-10-12,86,66,52,66,58,51,97,80,41,30.02,29.91,6,0,6,0.00
2013-10-13,82,67,56,68,62,54,98,85,57,30.12,30.01,4,0,4,0.00
2013-10-14,73,67,62,65,63,60,96,87,75,30.15,30.05,10,0,10,0.00
2013-10-15,68,64,59,62,60,57,95,88,77,30.09,29.99,4,0,4,0.00
2013-10-16,77,64,54,65,59,53,97,87,56,30.01,29.90,6,0,6,0.00
2013-10-17,72,66,62,68,64,61,97,94,87,29.92,29.82,8,0,8,0.09
2013-10-18,75,62,55,65,58,54,97,88,59,29.96,29.85,6,0,6,0.00
2013-10-19,64,59,54,58,56,52,96,91,78,29.92,29.85,10,0,10,0.05
2013-10-20,77,56,45,53,48,43,97,80,33,30.02,29.91,6,0,6,0.00
2013-10-21,72,54,41,62,51,40,96,89,64,30.10,29.96,6,0,6,0.00
2013-10-22,70,60,52,60,56,51,97,89,63,29.98,29.79,6,0,6,0.00
2013-10-23,66,53,41,51,44,36,97,74,40,30.03,29.77,24,1,24,0.00
2013-10-24,69,49,36,45,38,34,96,72,33,30.16,30.03,18,0,18,0.00
2013-10-25,64,46,36,41,36,29,93,71,29,30.32,30.14,8,0,8,0.00
2013-10-26,64,44,29,44,35,27,96,76,36,30.31,30.11,10,0,10,0.00
2013-10-27,73,53,37,57,47,36,97,81,51,30.12,30.04,10,0,12,0.00
2013-10-28,66,57,51,60,54,49,97,93,72,30.23,30.07,4,0,4,0.02
2013-10-29,75,58,48,62,54,47,98,86,55,30.29,30.19,4,0,4,0.00
2013-10-30,81,63,52,61,56,51,97,81,47,30.26,30.10,12,0,12,0.00
2013-10-31,76,65,53,65,59,52,96,82,64,30.13,29.84,14,0,14,0.00
2013-11-1,71,66,56,66,62,54,96,88,70,29.84,29.64,10,1,14,0.34
2013-11-2,71,56,45,54,47,41,97,76,35,29.99,29.73,18,1,18,0.00
2013-11-3,70,51,40,46,42,38,95,75,34,30.28,29.98,6,0,8,0.00
2013-11-4,68,48,35,43,39,33,96,75,35,30.42,30.27,10,0,10,0.00
2013-11-5,68,50,37,49,40,35,94,72,37,30.45,30.31,8,0,8,0.00
2013-11-6,78,60,50,59,53,48,94,81,51,30.33,30.07,8,0,8,0.00
2013-11-7,74,56,44,61,48,36,97,76,32,30.12,29.96,16,1,16,0.01
2013-11-8,68,46,32,38,34,26,95,67,22,30.29,30.12,8,0,8,0.00
2013-11-9,65,46,31,43,36,29,96,74,29,30.34,30.18,10,0,10,0.00
2013-11-10,77,54,42,47,42,39,94,70,28,30.22,30.09,10,0,10,0.00
2013-11-11,69,48,34,41,36,32,96,71,27,30.29,30.14,10,0,12,0.00
2013-11-12,69,46,32,46,34,21,97,68,36,30.40,30.03,20,2,20,0.00
2013-11-13,55,35,22,23,19,10,90,60,17,30.54,30.40,8,0,8,0.00
2013-11-14,63,37,20,28,22,18,93,64,18,30.49,30.29,6,0,8,0.00
2013-11-15,55,45,30,48,39,26,95,80,61,30.30,30.12,4,0,4,0.10
2013-11-16,65,55,48,58,53,47,97,92,79,30.20,30.10,6,0,6,0.00
2013-11-17,68,62,56,67,60,54,97,96,91,30.13,29.87,10,0,10,0.06
2013-11-18,77,65,45,68,52,36,97,69,29,29.96,29.81,18,1,18,0.12
2013-11-19,66,47,33,40,34,28,96,65,29,30.16,29.94,12,0,12,0.00
2013-11-20,59,47,34,36,33,29,87,59,39,30.32,30.15,14,0,14,0.00
2013-11-21,56,51,48,48,43,36,90,74,56,30.39,30.29,8,0,8,0.00
2013-11-22,65,57,50,58,53,48,96,89,77,30.33,30.11,4,0,4,0.05
2013-11-23,68,57,43,58,50,31,97,77,54,30.17,30.02,14,1,14,0.03
2013-11-24,53,38,27,32,24,14,90,60,24,30.45,30.16,8,0,8,0.00
2013-11-25,47,37,25,23,20,13,90,54,29,30.49,30.22,10,0,12,0.00
2013-11-26,48,40,34,47,37,23,97,92,49,30.22,29.58,8,0,10,1.12
2013-11-27,48,39,29,47,32,20,98,77,50,30.20,29.55,26,3,30,0.14
2013-11-28,53,33,20,29,23,18,94,70,31,30.46,30.20,8,0,8,0.00
2013-11-29,64,38,22,33,26,20,96,71,20,30.50,30.40,6,0,6,0.00
2013-11-30,55,39,28,33,28,25,93,68,32,30.55,30.32,10,0,12,0.00
2013-12-1,58,44,35,43,36,31,93,75,47,30.33,29.98,6,0,6,0.00
2013-12-2,58,46,38,51,44,36,96,93,76,29.99,29.78,6,0,8,0.13
2013-12-3,57,53,49,55,52,48,97,96,92,29.88,29.80,8,0,8,0.65
2013-12-4,71,60,55,65,59,54,98,95,79,30.00,29.86,10,0,10,0.06
2013-12-5,72,67,63,68,66,62,98,95,88,30.03,29.93,10,1,14,0.02
2013-12-6,75,70,62,68,66,61,95,87,75,30.01,29.91,18,1,18,0.08
2013-12-7,62,54,48,61,51,45,96,90,81,30.26,29.97,18,0,18,0.11
2013-12-8,50,44,40,47,43,39,96,95,87,30.29,30.18,8,0,10,0.39
2013-12-9,48,43,39,47,42,38,97,97,96,30.22,29.98,4,0,4,0.35
2013-12-10,54,47,33,50,41,28,98,80,44,30.29,29.89,28,2,28,0.09
2013-12-11,56,38,25,37,30,23,96,77,38,30.42,30.28,8,0,8,0.00
2013-12-12,55,38,28,31,25,16,95,67,22,30.40,30.29,14,0,14,0.00
2013-12-13,59,39,22,36,27,21,94,69,26,30.34,30.16,8,0,8,0.00
2013-12-14,48,45,41,47,43,36,97,91,79,30.16,29.79,8,0,8,0.58
2013-12-15,51,44,33,48,38,29,97,80,57,30.13,29.75,24,2,24,0.01
2013-12-16,60,40,28,36,29,25,93,70,29,30.20,30.12,14,1,14,0.00
2013-12-17,64,45,27,38,32,26,97,66,34,30.18,30.02,22,1,24,0.00
2013-12-18,57,42,30,37,24,14,86,53,20,30.27,30.09,14,1,16,0.00
2013-12-19,64,41,25,35,28,23,94,67,22,30.32,30.18,12,0,12,0.00
2013-12-20,58,43,31,51,40,29,94,88,75,30.22,30.11,2,0,2,0.00
2013-12-21,70,59,48,66,56,46,96,91,81,30.11,29.91,10,0,10,0.01
2013-12-22,70,64,59,66,62,58,98,95,84,30.00,29.87,16,1,20,2.65
2013-12-23,59,52,39,58,50,35,98,91,76,30.16,29.96,14,1,14,0.72
2013-12-24,48,37,27,35,27,19,89,68,36,30.36,30.15,18,1,18,0.00
2013-12-25,47,35,24,28,22,18,88,63,36,30.49,30.32,8,0,8,0.00
2013-12-26,59,42,30,33,28,23,91,62,34,30.34,30.20,10,0,10,0.00
2013-12-27,54,36,26,34,29,24,96,77,40,30.44,30.28,6,0,6,0.00
2013-12-28,48,37,27,41,33,26,95,86,54,30.39,30.00,6,0,10,1.13
2013-12-29,58,46,41,49,43,39,97,88,67,30.02,29.81,20,1,20,0.66
2013-12-30,53,46,39,45,42,37,95,84,71,30.15,29.97,12,0,14,0.00
2013-12-31,51,42,32,41,33,26,90,72,40,30.33,30.14,14,0,14,0.00
2014-1-1,49,40,31,41,35,29,95,83,60,30.34,30.11,4,0,4,0.00
2014-1-2,50,43,28,50,40,15,97,88,57,30.13,29.69,28,2,28,0.25